www.pogodaiklimat.ru
ПОГОДА в Нонгбуалампху
Время
(UTC), дата
00 13.10
03 13.10
06 13.10
09 13.10
12 13.10
15 13.10
18 13.10
21 13.10
00 14.10
03 14.10
06 14.10
09 14.10
12 14.10
15 14.10
18 14.10
21 14.10
00 15.10
03 15.10
06 15.10
09 15.10
12 15.10
15 15.10
18 15.10
21 15.10
00 16.10
03 16.10
06 16.10
09 16.10
12 16.10
15 16.10
18 16.10
21 16.10
00 17.10
03 17.10
06 17.10
09 17.10
12 17.10
15 17.10
18 17.10
21 17.10
00 18.10
03 18.10
06 18.10
09 18.10
12 18.10
15 18.10
18 18.10
21 18.10
00 19.10
03 19.10
06 19.10
09 19.10
12 19.10
15 19.10
18 19.10
21 19.10
Ветер
(напр.,м/с)
Видим. Явления Облачность Т
(С)
Тd
(С)
f
(%)
Тe
(С)
Тes
(С)
Комфортность P
(гПа)
Po
(гПа)
Тmin
(С)
Tmax
(С)
R
(мм)
R24
(мм)
S
(см)
штиль 0 9000 м дымка ясно +25.5 +23.3 88 +34 +35 очень
душно
1010.3 984.3 +24.6
В 3 15 км 6/4 600 м
[Cu med, cong Cs]
+31.0 +23.0 62 +41 +47 опасность
перегрева
1011.5 986.0
В 4 15 км 4/4 600 м
[Cu med, cong]
+32.7 +22.2 54 +42 +48 опасность
перегрева
1008.4 983.1
В 6 15 км 3/3 600 м
[Cu med, cong]
+32.0 +21.7 55 +41 +42 опасность
перегрева
1006.1 980.8
штиль 0 12 км ясно +28.0 +23.6 77 +38 +38 очень
душно
1008.6 982.9 +34.0
штиль 0 11 км ясно +26.0 +23.1 84 +35 +35 очень
душно
1011.2 985.2
штиль 0 10 км ясно +25.0 +23.5 91 +34 +34 очень
душно
1011.4 985.4
штиль 0 10 км ясно +25.0 +22.8 88 +33 +33 очень
душно
1011.0 985.0
штиль 0 9000 м дымка 1/0
[Cs]
+23.5 +21.4 88 +30 +31 очень
душно
1013.1 986.8 +22.6
В 10 9000 м мгла 1/1 1000 м
[Sc]
+30.0 +20.2 56 +37 +37 очень
душно
1014.0 988.4
В 7 9000 м мгла 4/4 1000 м
[Sc]
+32.6 +20.5 49 +39 +42 очень
душно
1011.8 986.4
СВ 2 9000 м мгла 3/3 1000 м
[Sc]
+32.4 +20.8 50 +39 +43 очень
душно
1009.7 984.3
В 2 8000 м дымка 3/1 1000 м
[Sc Ci fib]
+28.2 +22.0 69 +36 +36 очень
душно
1010.8 985.0 +34.0
штиль 0 8000 м дымка 1/0
[Ci fib]
+27.0 +23.3 80 +36 +36 очень
душно
1013.9 988.0
В 2 8000 м дымка 1/0
[Ci fib]
+26.0 +23.1 84 +35 +35 очень
душно
1012.8 986.8
штиль 0 8000 м дымка 3/0
[Ci fib]
+25.4 +22.9 86 +34 +34 очень
душно
1012.6 986.5
В 4 9000 м дымка 3/0
[Ac und]
+26.2 +21.4 75 +33 +34 очень
душно
1013.5 987.5 +25.0
штиль 0 10 км ясно +28.4 +21.9 68 +37 +53 опасность
солнечного
удара
1014.9 989.0
СВ 5 12 км 3/3 600 м
[Sc diur, vesp Ci fib]
+33.0 +20.3 47 +39 +46 очень
душно
1011.4 986.0
В 7 12 км 4/4 600 м
[Sc diur, vesp Ac trans Ci fib]
+31.7 +21.3 54 +39 +40 очень
душно
1010.3 984.9
ЮВ 5 10 км 8/5 600 м
[Sc diur, vesp Ac As Cs]
+27.5 +22.3 73 +36 +36 очень
душно
1012.6 986.7 +33.2
В 4 9000 м дымка 6/3 600 м
[Sc diur, vesp Ac und Cs]
+27.3 +23.5 80 +37 +37 очень
душно
1014.3 988.4
В 2 9000 м дымка 6/0
[Cs]
+26.3 +23.5 85 +36 +36 очень
душно
1014.0 988.0
штиль 0 8000 м дымка 3/0
[Ci fib]
+25.6 +23.5 88 +35 +35 очень
душно
1012.9 986.9
СЗ 5 9000 м дымка 8/1 600 м
[Sc diur, vesp Ac trans Ci fib]
+24.5 +21.9 85 +31 +32 очень
душно
1014.9 988.7 +24.3
В 7 15 км 3/3 600 м
[Cu med, cong]
+30.0 +21.9 62 +39 +41 очень
душно
1013.6 987.9
СВ 8 15 км 6/4 600 м
[Cu med, cong Cs]
+31.0 +20.3 53 +38 +39 очень
душно
1011.3 985.7
В 3 15 км 4/4 600 м
[Cu med, cong]
+31.5 +22.3 58 +41 +43 опасность
перегрева
1009.3 983.9
В 3 12 км {дождь} 3/0
[Ac trans]
+27.5 +22.3 73 +36 +36 очень
душно
1010.8 984.9 +33.3 0.0
В 2 11 км 1/0
[Cs]
+28.0 +23.6 77 +38 +38 очень
душно
1012.7 986.9
штиль 0 10 км 8/0
[Ac und]
+26.0 +21.5 76 +33 +33 очень
душно
1013.2 987.2
штиль 0 10 км 6/0
[Ac und]
+24.7 +22.2 86 +32 +32 очень
душно
1012.1 986.1
штиль 0 10 км 1/0
[Cs]
+25.0 +20.4 76 +31 +32 очень
душно
1013.5 987.4 +23.7
В 5 11 км 1/1 600 м
[Sc diur, vesp Cs]
+29.9 +20.4 57 +37 +42 очень
душно
1014.6 988.9
СВ 4 12 км 3/3 600 м
[Sc diur, vesp Ac trans Ci fib]
+32.5 +21.6 53 +41 +49 опасность
перегрева
1011.7 986.3
СВ 2 12 км 3/3 600 м
[Sc diur, vesp Cs]
+31.1 +22.1 59 +40 +43 очень
душно
1010.0 984.5
штиль 0 11 км 3/0
[Cs]
+28.0 +23.5 77 +38 +38 очень
душно
1011.5 985.7 +33.2
штиль 0 9000 м дымка ясно +26.9 +24.7 88 +38 +38 очень
душно
1015.7 989.7
В 2 9000 м дымка 1/0
[Ci fib]
+26.0 +23.4 86 +35 +35 очень
душно
1014.0 987.9
ЮВ 3 8000 м дымка ясно +25.2 +22.4 84 +33 +33 очень
душно
1013.1 987.1
В 2 8000 м дымка ясно +24.5 +19.7 75 +30 +30 очень
душно
1014.2 988.1 +23.3
В 6 9000 м мгла 1/0
[Ac trans]
+29.5 +19.7 56 +36 +40 очень
душно
1014.6 988.8
СВ 4 12 км 3/3 600 м
[Sc diur, vesp Cs]
+32.5 +20.4 49 +39 +47 очень
душно
1011.8 986.4
СВ 8 12 км 3/3 600 м
[Sc diur, vesp Cs]
+32.5 +20.7 50 +40 +40 очень
душно
1010.6 985.2
штиль 0 10 км 6/4 600 м
[Sc diur, vesp Ac As Cs]
+28.8 +23.7 74 +39 +39 очень
душно
1011.7 986.0 +33.7
штиль 0 9000 м дымка 5/3 600 м
[Sc diur, vesp Ac As Cs]
+26.5 +23.7 85 +36 +36 очень
душно
1014.5 988.5
В 3 9000 м дымка 4/0
[Cs]
+26.6 +23.8 85 +37 +37 очень
душно
1013.7 987.8
ЮВ 2 8000 м дымка ясно +25.3 +23.2 88 +34 +34 очень
душно
1013.6 987.5
ЮЗ 2 8000 м дымка ясно +23.1 +21.6 91 +31 +31 очень
душно
1015.5 989.2 +23.0
В 5 9000 м мгла ясно +29.0 +20.7 61 +36 +42 очень
душно
1015.3 989.5
СВ 3 9000 м мгла 4/4 1000 м
[Sc]
+31.6 +19.6 49 +37 +45 очень
душно
1012.4 986.9
В 5 9000 м мгла 3/3 1000 м
[Sc]
+32.0 +19.9 49 +38 +40 очень
душно
1011.0 985.6
В 2 8000 м дымка 3/3 1000 м
[Sc]
+27.0 +21.6 72 +34 +34 очень
душно
1011.9 986.0 +33.4
штиль 0 8000 м дымка 3/3 1000 м
[Sc]
+25.2 +21.4 79 +32 +32 очень
душно
1013.5 987.4
С 2 8000 м дымка 3/3 1000 м
[Sc]
+24.7 +21.4 82 +31 +31 очень
душно
1013.0 986.9
штиль 0 8000 м дымка ясно +23.0 +21.5 91 +31 +31 очень
душно
1012.6 986.4
Местоположение метеостанции Нонгбуалампху (Таиланд): широта 17.23 долгота 102.43 высота над уровнем моря 228 м.
В архиве по умолчанию представлена погода в Нонгбуалампху за последнюю неделю. Архивные данные за месяц целиком и за предыдущие месяцы, начиная с января 2011 года, Вы можете получить, выбрав интересующий диапазон дат из раскрывающегося списка и нажав кнопку "Найти!".
*Определитесь, кто Вы:
Внимание! Время в таблицах - всемирное. Для получения местного времени необходимо прибавить поправку, которая равна 7 ч.
Смотрите также архив погоды в соседних городах и на ближайших метеорологических станциях:
Партнеры нашего сайта:      
Пояснения к столбцам:
  • Ветер - указаны скорость ветра в м/с - средняя за 10 мин, порывы в срок и между сроками (в фигурных скобках) и направление, откуда дует ветер: С - северный,
  • СВ - северо-восточный, В - восточный, ЮВ - юго-восточный, Ю - южный, ЮЗ - юго-западный, З - западный, СЗ - северо-западный.
  • Видимость - горизонтальная дальность видимости в метрах или километрах. При видимости от 1 до 10 км при отсутствии осадков обычно наблюдается дымка, при ухудшении видимости до 1 км и менее - туман. В сухую погоду видимость может ухудшаться дымом, пылью или мглою.
  • Явления - указаны атмосферные явления, наблюдавшиеся в срок или в последний час перед сроком; фигурными скобками обозначены явления, наблюдавшиеся между сроками (за 1-3 часа до срока); квадратными скобками обозначены град или гололедные отложения с указанием их диаметра в мм.
  • Облачность - указаны через наклонную черту общая и нижняя облачность в баллах и высота нижней границы облаков в метрах; квадратными скобками обозначены формы облаков: Ci - перистые, Cs - перисто-слоистые, Cc - перисто-кучевые, Ac - высококучевые, As - высокослоистые, Sc - слоисто-кучевые, Ns - слоисто-дождевые, Cu - кучевые, Cb - кучево-дождевые. Подробнее классификацию облаков см. в Атласе облаков (PDF).
  • T - Температура воздуха - температура, измеренная на высоте 2 м над землей.
  • Td - Температура точки росы - температура, при понижении до которой содержащийся в воздухе водяной пар достигнет насыщения.
  • f - Относительная влажность воздуха - влажноcть воздуха, измеренная на высоте 2 м над землей.
  • Te - Эффективная температура - температура, которую ощущает одетый по сезону человек в тени. Характеристика душности погоды. При расчете учитывается влияние влажности воздуха и скорости ветра на теплоощущения человека.
  • Tes - Эффективная температура на солнце - температура, которую ощущает человек, с поправкой на солнечный нагрев. Характеристика знойности погоды. Зависит от высоты солнца над горизонтом, облачности и скорости ветра. Ночью, в пасмурную погоду, а также при ветре 12 м/с и более поправка равна нулю.
  • P - Атмосферное давление - приведенное к уровню моря атмосферное давление.
  • Po - Атмосферное давление - измеренное на уровне метеостанции атмосферное давление.
  • Tmin - Минимальная температура - минимум температуры воздуха на высоте 2 м над землей.
  • Tmax - Максимальная температура - максимум температуры воздуха на высоте 2 м над землей.
  • R - Количество осадков - Количество выпавших осадков за период времени, мм. При наведении курсора мыши на число - период времени, за который выпало указанное количество осадков.
  • R24 - Количество осадков - Количество выпавших осадков за 24 часа, мм.
  • S - Снежный покров - Высота снежного покрова, см. При наведении курсора мыши на число - состояние снежного покрова и степень покрытия местности в баллах.